Find Starlink 31625

NORAD ID: 59458 Int'l Des: 2024-068 Owner: SPXS Country: US Constellation: starlink operational
LEOCIRCULAR

現在のビュー

3D地球を読み込み中...

About Starlink 31625

Starlink 31625 (NORAD 59458) is a starlink constellation satellite (v2 mini) launched Apr 10, 2024 by SPXS of US. It operates in LEO, CIRCULAR orbit with a mass of 730.00 kg.

次回通過

Passes for default location (London). Set your location on the main map for personalized predictions.

高度履歴

Loading altitude history...

軌道要素

1 59458U 24068D 26263.35694640 -.00000503 00000-0 -87558-5 0 9995
2 59458 43.0047 15.2191 0001215 274.1483 85.9230 15.27572277138293
Epoch: Sep 20, 2026 • Age: 16 hours

現在のステータス

高度 482.9 km
遠地点 / 近地点 N/A
速度 7.63 km/s
衛星直下点 -1.86°S, 5.94°E
打ち上げ日 Apr 10, 2024
運用期間 2.4 years
タイプ internet

技術仕様

分類 Payload
質量 730.00 kg
乾燥質量 700.00 kg
長さ 0.30 m
スパン 29.00 m
形状 ? Box + pan
製造者 SPXS
バスタイプ Starlink V2M
フェーズステータス In Orbit
所有者/国 SPXS/US

Most Searched